GW4591 Weather Reports


time (UTC)temp
C
wind
direction
speed
KPH
gust
KPH
rain 1hr
cm
rain 24hr
cm
rain mn
cm
humidity
%
barometer
mb
20260507080003 3 284 1.6 4.8 0.00 1.42 0.05 93 1013.6
20260507075545 3 284 0.0 4.8 0.00 1.45 0.05 93 1013.5
20260507075026 3 284 1.6 4.8 0.00 1.45 0.05 93 1013.5
20260507074507 3 284 1.6 4.8 0.00 1.45 0.05 94 1013.5
20260507074050 3 284 1.6 4.8 0.00 1.45 0.05 94 1013.4
20260507073529 3 284 0.0 4.8 0.00 1.45 0.05 94 1013.3
20260507073011 3 284 1.6 4.8 0.00 1.45 0.05 94 1013.3
20260507072554 3 284 1.6 4.8 0.00 1.45 0.05 94 1013.3
20260507072034 3 286 1.6 4.8 0.00 1.45 0.05 93 1013.2
20260507071514 3 285 1.6 4.8 0.00 1.45 0.05 93 1013.1
20260507071057 3 285 1.6 4.8 0.00 1.45 0.05 93 1013.1
20260507070538 3 285 1.6 4.8 0.00 1.45 0.05 94 1013.1
20260507070012 3 284 0.0 1.6 0.00 1.45 0.05 94 1013.0
20260507065532 3 284 0.0 1.6 0.00 1.50 0.05 93 1012.9
20260507065010 3 284 0.0 3.2 0.00 1.50 0.05 93 1012.9
20260507064559 3 284 0.0 3.2 0.00 1.50 0.05 93 1012.8
20260507064034 3 284 0.0 4.8 0.00 1.50 0.05 93 1012.8
20260507063514 3 285 0.0 1.6 0.00 1.50 0.05 93 1012.7
20260507063105 3 285 0.0 1.6 0.00 1.50 0.05 93 1012.8
20260507062537 3 285 0.0 1.6 0.00 1.50 0.05 93 1012.6
20260507062017 3 285 0.0 3.2 0.00 1.50 0.05 92 1012.6
20260507061602 3 285 0.0 4.8 0.00 1.50 0.05 92 1012.6
20260507061041 3 285 1.6 4.8 0.00 1.50 0.05 92 1012.6
20260507060521 3 285 0.0 3.2 0.00 1.50 0.05 92 1012.6
20260507060104 3 285 0.0 3.2 0.00 1.50 0.05 91 1012.6
20260507055543 3 285 0.0 4.8 0.00 1.52 0.05 91 1012.5
20260507055027 3 285 0.0 4.8 0.00 1.52 0.05 91 1012.6
20260507054509 4 285 1.6 8.0 0.00 1.52 0.05 90 1012.4
20260507054047 4 251 1.6 8.0 0.00 1.52 0.05 88 1012.4
20260507053527 4 202 1.6 14.5 0.00 1.52 0.05 88 1012.3
20260507053006 4 159 3.2 14.5 0.00 1.52 0.05 88 1012.2
20260507052550 4 174 6.4 12.9 0.00 1.52 0.05 87 1012.2
20260507052030 4 153 1.6 9.7 0.00 1.52 0.05 89 1012.3
20260507051510 4 271 1.6 9.7 0.00 1.52 0.05 90 1012.4
20260507051054 4 184 0.0 6.4 0.00 1.52 0.05 90 1012.3
20260507050534 4 184 3.2 6.4 0.00 1.52 0.05 91 1012.3
20260507050014 3 212 1.6 3.2 0.00 1.52 0.05 91 1012.2
20260507045557 3 213 0.0 4.8 0.00 1.52 0.05 91 1012.2
20260507045038 3 213 1.6 4.8 0.00 1.52 0.05 91 1012.2
20260507044517 3 212 1.6 4.8 0.00 1.52 0.05 90 1012.0
20260507044101 3 207 0.0 3.2 0.00 1.52 0.05 90 1012.1
20260507043541 3 207 0.0 3.2 0.00 1.52 0.05 90 1012.0
20260507043024 3 207 0.0 3.2 0.00 1.52 0.05 90 1012.1
20260507042502 3 207 1.6 3.2 0.00 1.52 0.05 90 1012.0
20260507042045 3 207 0.0 0.0 0.00 1.52 0.05 90 1012.0
20260507041525 3 207 0.0 0.0 0.00 1.52 0.05 89 1011.8
20260507041005 3 207 0.0 1.6 0.00 1.52 0.05 89 1011.8
20260507040549 3 207 0.0 4.8 0.00 1.52 0.05 89 1011.8
20260507040029 3 207 0.0 4.8 0.00 1.52 0.05 89 1011.8
20260507035553 3 207 0.0 6.4 0.00 1.52 0.05 89 1011.8
20260507035034 3 206 1.6 6.4 0.00 1.52 0.05 88 1011.8
20260507034513 3 182 1.6 8.0 0.00 1.52 0.05 89 1011.7
20260507034057 3 215 3.2 4.8 0.00 1.52 0.05 88 1011.7
20260507033537 3 232 1.6 4.8 0.00 1.52 0.05 88 1011.7
20260507033017 3 239 0.0 8.0 0.00 1.52 0.05 88 1011.7
20260507032603 3 244 1.6 8.0 0.00 1.52 0.05 88 1011.6
20260507032040 3 211 3.2 8.0 0.00 1.52 0.05 88 1011.7
20260507031520 3 229 3.2 8.0 0.00 1.52 0.05 87 1011.7
20260507031003 3 180 1.6 6.4 0.00 1.52 0.05 87 1011.5
20260507030543 3 190 1.6 6.4 0.00 1.52 0.05 87 1011.6
20260507030024 3 196 1.6 9.7 0.00 1.52 0.05 86 1011.5
20260507025504 3 165 3.2 8.0 0.00 1.52 0.05 85 1011.7
20260507025046 3 173 3.2 8.0 0.00 1.52 0.05 85 1011.7
20260507024526 3 186 1.6 6.4 0.00 1.52 0.05 85 1011.6
20260507024009 3 192 1.6 8.0 0.00 1.52 0.05 86 1011.7
20260507023552 3 182 0.0 9.7 0.00 1.52 0.05 87 1011.6
20260507023029 3 178 4.8 9.7 0.00 1.52 0.05 88 1011.6
20260507022510 3 180 0.0 8.0 0.00 1.52 0.05 89 1011.6
20260507022053 3 205 1.6 6.4 0.00 1.52 0.05 90 1011.7
20260507021534 3 190 1.6 6.4 0.00 1.52 0.05 90 1011.7
20260507021012 3 175 1.6 6.4 0.00 1.52 0.05 90 1011.7
20260507020555 3 311 1.6 4.8 0.00 1.52 0.05 90 1011.7
20260507020050 3 313 0.0 4.8 0.00 1.52 0.05 90 1011.7
20260507015514 3 315 0.0 3.2 0.00 1.52 0.05 89 1011.7
20260507015059 3 315 0.0 3.2 0.00 1.52 0.05 89 1011.5
20260507014540 3 315 1.6 8.0 0.00 1.52 0.05 89 1011.5
20260507014019 3 315 1.6 8.0 0.00 1.52 0.05 88 1011.4
20260507013603 3 236 0.0 6.4 0.00 1.52 0.05 87 1011.3
20260507013051 3 177 0.0 8.0 0.00 1.52 0.05 87 1011.4
20260507012523 3 177 6.4 12.9 0.00 1.52 0.05 87 1011.4
20260507012002 3 182 6.4 11.3 0.00 1.52 0.05 87 1011.5
20260507011546 3 173 9.7 12.9 0.00 1.52 0.05 88 1011.5
20260507011025 3 148 3.2 12.9 0.00 1.52 0.05 87 1011.6
20260507010506 3 20 0.0 3.2 0.00 1.52 0.05 87 1011.6
20260507010053 3 22 0.0 8.0 0.00 1.52 0.05 87 1011.5
20260507005512 3 22 3.2 8.0 0.00 1.52 0.05 87 1011.4
20260507005054 3 23 1.6 8.0 0.00 1.52 0.05 87 1011.4
20260507004540 3 171 3.2 17.7 0.00 1.52 0.05 86 1011.4
20260507004014 3 180 4.8 14.5 0.00 1.52 0.05 86 1011.3
20260507003600 3 170 9.7 14.5 0.00 1.52 0.05 86 1011.3
20260507003044 4 188 8.0 17.7 0.00 1.52 0.05 86 1011.3
20260507002520 4 171 11.3 22.5 0.00 1.52 0.05 87 1011.3
20260507002103 4 159 11.3 17.7 0.00 1.52 0.05 87 1011.3
20260507001546 3 155 9.7 14.5 0.00 1.52 0.05 88 1011.5
20260507001021 3 181 8.0 12.9 0.00 1.52 0.05 88 1011.4
20260507000501 3 193 6.4 11.3 0.00 1.52 0.05 88 1011.5
20260507000045 3 186 6.4 11.3 0.00 1.52 0.05 88 1011.4
20260506235528 3 180 9.7 11.3 0.00 1.55 0.05 89 1011.4
20260506235005 3 186 0.0 3.2 0.03 1.55 0.05 88 1011.4
20260506234552 3 186 0.0 4.8 0.03 1.55 0.05 89 1011.4
20260506234029 3 186 1.6 4.8 0.03 1.55 0.05 88 1011.4
20260506233509 3 186 1.6 4.8 0.03 1.55 0.05 88 1011.4
20260506233108 4 180 0.0 9.7 0.03 1.55 0.05 88 1011.4
20260506232532 4 180 1.6 9.7 0.03 1.55 0.05 87 1011.4
20260506232012 4 236 4.8 14.5 0.03 1.55 0.05 87 1011.4
20260506231601 4 217 4.8 16.1 0.03 1.55 0.05 86 1011.4
20260506231037 4 159 8.0 16.1 0.03 1.55 0.05 86 1011.4
20260506230516 4 206 4.8 27.4 0.03 1.55 0.05 86 1011.4
20260506230100 4 167 12.9 30.6 0.03 1.55 0.05 85 1011.4
20260506225540 4 166 12.9 30.6 0.03 1.52 0.03 86 1011.4
20260506225020 5 141 3.2 29.0 0.03 1.52 0.03 87 1011.6
20260506224604 5 144 12.9 29.0 0.03 1.52 0.03 87 1011.5
20260506224045 5 171 16.1 25.7 0.05 1.52 0.03 87 1011.4
20260506223523 5 164 16.1 24.1 0.05 1.52 0.03 85 1011.5
20260506223002 5 159 17.7 29.0 0.05 1.52 0.03 85 1011.6
20260506222546 5 177 12.9 25.7 0.05 1.52 0.03 86 1011.5
20260506222028 4 161 16.1 22.5 0.05 1.52 0.03 85 1011.5
20260506221506 4 179 17.7 22.5 0.05 1.52 0.03 86 1011.4
20260506221051 4 150 14.5 20.9 0.05 1.52 0.03 86 1011.5
20260506220529 4 210 6.4 17.7 0.05 1.52 0.03 85 1011.6
20260506220009 4 184 9.7 22.5 0.03 1.50 0.00 85 1011.5
20260506215531 5 212 6.4 22.5 0.03 1.50 1.50 86 1011.4
20260506215010 5 176 16.1 25.7 0.03 1.50 1.50 87 1011.4
20260506214556 5 175 9.7 22.5 0.00 1.45 1.45 88 1011.6
20260506214035 5 173 12.9 22.5 0.03 1.45 1.45 89 1011.5
20260506213514 4 182 12.9 22.5 0.03 1.45 1.45 90 1011.6
20260506213120 4 134 12.9 22.5 0.03 1.45 1.45 90 1011.4
20260506212538 3 180 11.3 17.7 0.03 1.45 1.45 91 1011.4
20260506212018 3 173 6.4 14.5 0.03 1.45 1.45 91 1011.5
20260506211602 3 216 3.2 9.7 0.03 1.45 1.45 91 1011.6
20260506211042 3 182 3.2 12.9 0.03 1.45 1.45 92 1011.6
20260506210522 3 205 4.8 12.9 0.03 1.45 1.45 92 1011.8
20260506210003 3 189 1.6 6.4 0.03 1.45 1.45 92 1011.7
20260506205545 3 205 3.2 6.4 0.03 1.45 1.45 92 1011.7
20260506205026 3 243 3.2 11.3 0.03 1.45 1.45 92 1011.5
20260506204506 3 242 3.2 11.3 0.03 1.45 1.45 91 1011.6
20260506204049 3 238 3.2 14.5 0.00 1.42 1.42 91 1011.7
20260506203528 3 234 4.8 14.5 0.00 1.42 1.42 91 1011.7
20260506203008 4 240 4.8 12.9 0.00 1.42 1.42 90 1011.7
20260506202552 4 241 3.2 19.3 0.00 1.42 1.42 89 1011.6
20260506202031 4 241 11.3 19.3 0.00 1.42 1.42 86 1011.5
20260506201513 5 241 4.8 9.7 0.00 1.42 1.42 83 1011.4
20260506201054 5 247 3.2 8.0 0.00 1.42 1.42 83 1011.4